GFSNIL_prec_cthk_000.txt.gz
RH
34 36 40 47 49 49 50 50 52 46 49 48 44 38 32 28 30 33 31 30 36 41
35 37 48 51 53 54 52 52 50 51 54 61 60 46 37 33 32 30 29 33 32 36
34 38 46 47 50 51 57 53 55 53 58 57 65 61 52 45 37 28 27 32 36 35
40 44 45 49 54 54 52 51 49 50 53 65 56 61 60 52 47 40 30 29 36 37
46 49 50 51 54 54 53 54 52 59 56 50 60 62 64 61 55 49 44 39 35 43
52 53 57 55 52 51 54 53 58 64 70 63 63 58 64 66 58 53 51 51 50 45
63 60 61 63 60 52 55 53 58 60 63 66 59 57 63 71 64 58 60 59 61 58
61 65 64 64 60 56 55 54 51 54 58 61 57 53 68 69 67 64 66 64 68 69
56 57 56 59 60 57 54 59 63 57 56 63 57 57 65 66 70 71 72 75 79 80
48 50 50 52 61 65 71 70 60 57 61 64 66 67 63 65 72 74 76 78 79 85
45 45 43 43 47 52 62 65 65 62 66 71 76 66 68 73 75 76 77 78 81 82
40 44 47 50 52 60 67 70 68 70 71 73 73 66 74 76 78 72 74 80 82 84
43 44 49 55 59 66 73 67 67 69 70 70 70 72 72 70 75 72 78 78 81 84
45 49 55 55 59 67 68 69 70 72 73 73 71 72 70 69 71 74 77 78 82 82

GFSNIL_prec_cthk_003.txt.gz
RH
33 37 41 45 53 51 53 54 52 57 57 50 52 55 56 48 38 39 35 30 28 37
40 39 43 48 48 56 52 54 51 52 49 53 56 55 56 57 55 43 35 33 33 34
41 44 44 50 51 52 58 52 52 51 52 54 58 61 51 57 61 59 50 47 40 37
40 42 43 43 46 48 50 49 46 42 49 49 64 72 67 60 61 69 63 54 47 47
38 42 43 45 45 46 44 47 46 47 51 55 56 62 60 62 60 66 64 58 53 53
41 40 42 47 48 45 43 47 48 48 45 44 47 53 52 56 56 58 71 70 67 63
43 43 44 47 49 48 43 45 44 41 43 47 47 48 53 59 61 54 69 76 75 69
47 45 48 48 52 52 46 43 42 46 49 51 52 51 58 63 66 56 72 74 76 71
42 47 52 55 56 57 52 49 49 48 51 53 55 53 58 63 64 59 69 79 81 79
46 48 53 58 58 57 59 58 52 44 47 57 59 61 58 65 68 63 71 80 80 81
46 50 53 52 49 49 51 55 59 57 57 62 65 64 64 68 70 65 68 76 78 78
44 43 44 45 46 48 54 58 61 62 69 68 67 68 67 71 71 71 74 72 75 72
38 38 40 44 47 53 58 67 70 67 67 70 69 69 72 73 68 67 70 76 72 71
40 39 42 46 54 58 63 71 70 68 65 67 68 69 69 66 70 73 70 72 72 78

GFSNIL_prec_cthk_006.txt.gz
RH
30 30 31 34 32 37 40 47 54 55 53 56 53 51 53 56 55 50 56 47 39 35
31 31 28 32 35 43 49 53 54 51 49 49 53 52 56 59 62 63 56 58 52 44
33 33 29 29 39 44 53 53 52 53 49 50 49 49 51 54 55 58 59 57 60 62
31 28 28 32 39 41 49 54 54 51 47 47 48 49 49 48 48 50 52 51 50 58
24 25 28 33 35 40 47 49 51 53 50 47 49 48 50 51 51 52 51 55 54 51
25 26 30 31 34 40 43 47 47 50 51 48 49 49 52 55 53 51 52 54 58 54
27 29 29 31 32 38 43 49 48 50 49 46 44 48 49 52 54 51 52 55 63 58
30 33 32 36 36 42 48 53 53 52 51 52 51 46 46 50 53 55 54 59 66 59
33 34 38 41 45 52 56 60 60 56 56 58 56 45 52 56 58 58 58 59 70 57
33 39 43 45 49 53 58 60 62 60 60 55 61 56 55 63 61 61 62 67 71 61
34 38 45 47 51 57 58 60 63 62 62 62 61 64 58 60 60 64 69 66 72 66
40 43 43 47 53 55 55 55 57 60 61 64 64 71 69 69 73 73 67 70 72 71
42 44 46 52 52 50 51 52 56 60 59 62 71 71 71 77 74 71 73 71 70 71
46 51 53 49 47 51 51 54 60 61 67 74 71 68 71 72 71 69 67 69 74 73

GFSNIL_prec_cthk_009.txt.gz
RH
23 23 25 29 32 34 39 45 47 46 47 49 51 43 43 45 46 44 47 53 50 53
29 26 30 27 33 37 44 45 45 47 49 52 50 48 44 48 53 52 46 42 42 46
23 32 33 28 33 39 44 45 47 48 47 50 51 51 47 50 56 56 53 49 47 46
23 29 31 28 33 40 43 47 48 47 47 49 53 49 46 47 55 53 54 54 52 52
23 25 26 29 32 34 39 43 45 49 49 52 52 48 47 49 53 52 54 55 54 57
22 23 26 28 30 32 35 41 46 51 52 53 52 53 53 51 52 51 54 54 56 59
20 21 25 26 28 32 36 40 46 49 50 53 54 56 58 52 51 49 53 56 58 60
21 22 27 29 30 31 35 39 44 46 50 55 60 61 59 53 53 52 51 57 60 63
23 25 29 30 32 37 39 41 46 50 57 63 62 67 62 60 54 52 53 56 60 65
23 25 30 36 40 42 44 48 53 57 62 65 72 71 64 61 57 56 56 64 66 68
29 25 31 39 42 45 49 53 60 65 70 72 70 67 65 64 61 64 65 67 71 71
33 27 30 39 47 51 56 65 71 72 69 64 62 65 68 68 68 67 70 74 78 74
36 34 34 45 51 55 65 71 75 64 59 61 64 65 71 66 66 67 71 69 67 68
40 40 41 50 55 71 72 67 56 55 55 60 64 64 63 64 65 71 68 66 70 74

GFSNIL_prec_cthk_012.txt.gz
RH
21 19 22 26 29 29 28 36 42 46 49 46 44 47 44 47 49 48 50 51 50 48
25 24 23 28 27 26 32 42 45 48 48 46 45 47 47 47 51 49 49 48 49 48
22 23 27 31 29 31 36 42 48 49 47 46 48 52 50 47 49 50 50 51 48 47
23 23 27 30 31 30 36 41 45 47 47 49 51 54 53 48 49 51 53 51 52 46
24 20 26 29 29 32 37 39 43 44 46 48 52 51 53 55 49 47 48 51 51 50
27 21 26 25 31 32 33 38 45 49 53 54 51 52 55 57 55 48 46 49 52 52
27 19 22 26 29 31 32 35 41 48 52 53 54 58 59 60 60 57 50 49 52 52
29 19 20 25 25 29 30 34 38 42 46 52 56 58 61 65 67 66 58 53 51 51
26 23 19 22 26 26 31 34 37 41 46 50 57 60 66 69 72 70 67 59 51 55
26 24 20 23 26 26 30 35 39 43 50 57 63 68 72 74 72 74 71 64 56 57
33 25 23 24 27 31 37 39 43 48 56 69 84 87 76 75 68 69 68 65 57 63
38 36 30 25 27 32 38 42 47 53 61 66 54 75 71 67 65 66 63 60 62 64
33 40 39 34 27 30 38 51 56 63 64 62 61 66 69 68 65 64 62 61 64 68
30 39 42 43 37 35 42 57 62 71 72 64 60 62 64 66 64 63 62 60 62 63

GFSNIL_prec_cthk_015.txt.gz
RH
27 24 24 24 28 28 29 29 32 41 47 50 48 49 49 48 48 47 46 48 48 48
31 27 25 23 22 26 29 32 35 41 47 50 49 47 50 47 47 48 49 49 50 49
32 29 26 26 23 28 28 33 37 42 48 50 49 46 49 50 47 47 49 49 47 46
33 27 26 27 25 27 27 33 37 42 46 49 50 48 51 52 52 49 47 47 48 48
36 30 25 27 26 25 28 32 36 43 46 50 53 52 51 52 56 57 48 44 47 50
34 31 25 23 26 25 26 30 36 42 46 49 50 50 52 58 60 64 64 56 50 52
32 32 24 21 26 26 26 29 34 39 44 49 52 53 57 60 64 68 73 73 65 56
34 35 29 21 25 26 27 31 35 40 46 50 53 55 57 59 62 72 77 79 73 65
35 34 30 23 22 25 28 30 33 37 41 44 47 51 52 60 69 81 82 76 75 67
36 34 31 28 22 23 25 29 30 34 37 38 42 43 52 61 63 66 79 77 76 68
34 34 31 32 26 23 25 26 28 32 36 39 41 47 56 66 57 59 70 76 77 68
36 35 33 30 30 27 27 27 27 33 38 40 45 56 62 67 61 64 76 78 69 63
34 36 38 37 35 35 31 31 31 36 40 44 54 59 61 62 63 70 75 68 64 58
37 34 35 40 43 38 37 35 35 40 47 53 61 64 69 63 65 67 66 63 60 58

GFSNIL_prec_cthk_021.txt.gz
RH
22 23 23 25 28 28 30 28 28 29 34 42 45 49 50 49 46 44 45 43 42 44
25 26 23 22 23 26 30 30 27 29 35 43 42 46 48 48 45 44 43 43 42 42
27 29 30 30 27 26 27 29 28 27 33 41 42 45 46 48 46 44 44 43 43 45
34 33 35 36 35 31 29 31 29 26 31 40 40 44 45 48 49 48 47 48 50 53
40 39 38 37 36 35 29 28 31 28 29 38 41 42 44 47 48 46 47 50 56 58
42 41 39 40 40 39 33 25 28 29 27 35 39 40 43 46 49 46 48 53 59 60
38 37 37 42 38 38 37 27 25 29 27 32 38 38 41 44 47 45 47 51 61 63
40 41 37 39 39 35 36 31 23 25 28 27 35 36 38 40 44 45 47 51 56 59
39 38 34 36 38 39 37 35 25 22 26 25 29 34 37 40 41 44 46 49 52 56
42 42 35 35 37 38 38 38 30 22 24 24 27 31 35 38 39 42 45 45 48 51
39 42 40 37 36 38 40 38 36 27 24 24 24 28 33 38 41 43 43 46 47 54
35 37 41 42 40 39 42 42 39 33 26 23 21 24 31 36 41 42 42 46 47 56
41 43 41 44 46 45 44 41 43 39 34 29 27 26 29 35 41 43 43 45 46 56
34 39 42 43 41 47 49 49 46 44 41 38 31 31 33 37 43 43 42 45 48 58

GFSNIL_prec_cthk_024.txt.gz
RH
19 23 26 27 32 31 37 36 35 32 28 29 37 41 42 45 44 44 40 38 39 43
18 20 22 23 25 28 30 33 32 30 27 28 34 38 42 46 45 43 40 40 39 41
20 21 24 26 27 25 26 27 32 28 26 28 34 37 39 46 45 41 41 43 44 46
27 26 26 29 30 30 29 28 28 29 25 23 32 36 37 41 44 39 39 43 46 49
35 34 30 27 28 29 31 30 28 28 29 25 27 34 34 38 43 42 42 43 46 48
36 36 35 35 34 36 37 33 28 25 25 25 25 31 34 35 38 42 41 43 45 53
36 36 37 40 40 37 38 39 36 30 23 24 25 29 33 32 35 39 41 41 44 49
35 36 39 41 38 38 40 39 39 37 29 22 26 27 30 30 33 36 39 40 42 46
40 37 39 43 41 37 38 40 41 40 37 25 21 23 25 27 29 33 35 39 39 44
43 38 38 44 45 41 39 43 42 42 41 34 21 20 18 21 24 25 29 33 38 44
44 43 47 46 44 42 41 39 40 41 40 38 28 19 20 22 25 28 31 37 41 45
42 43 43 42 44 44 45 43 40 42 42 40 33 25 21 22 25 29 35 40 44 47
39 42 42 39 41 43 42 45 49 48 44 42 39 32 26 24 26 30 32 38 41 41
36 38 39 38 38 41 43 46 48 46 45 46 42 41 34 32 31 30 35 39 44 44

GFSNIL_prec_cthk_027.txt.gz
RH
16 20 21 22 26 29 32 35 38 31 31 31 33 35 40 44 41 41 41 39 38 48
12 14 18 20 21 27 27 33 34 32 28 29 29 34 37 39 41 42 41 42 38 41
12 13 18 22 23 23 27 26 35 29 28 26 25 29 35 39 41 42 43 41 44 43
16 18 19 22 25 26 26 28 28 30 26 26 24 23 32 36 40 41 41 42 44 45
25 22 21 20 22 24 27 29 32 32 30 28 26 25 28 33 36 40 41 42 41 46
32 30 27 25 25 26 26 28 28 30 30 26 25 24 24 28 31 35 39 41 42 44
37 33 33 34 32 30 30 30 33 34 33 30 23 22 20 21 25 27 31 33 36 43
44 42 42 41 39 38 36 34 35 37 38 36 32 25 21 23 24 25 26 31 34 39
47 47 43 42 41 43 40 35 34 35 37 39 38 34 24 21 20 24 28 33 37 39
39 45 47 45 42 40 38 41 36 35 38 39 40 39 33 23 21 21 24 30 34 36
37 40 45 45 40 42 41 40 40 39 38 39 37 39 39 33 25 24 25 26 27 31
37 37 40 44 44 45 41 43 40 42 45 39 37 38 40 41 36 30 27 25 25 29
38 35 37 43 44 47 47 42 45 43 42 41 40 41 43 43 43 37 33 32 31 29
33 35 39 41 43 44 48 48 47 46 45 46 45 43 42 43 47 42 40 41 38 36

GFSNIL_prec_cthk_030.txt.gz
RH
22 21 19 22 24 25 27 28 29 30 29 27 28 29 39 36 40 38 36 34 39 45
18 18 15 18 19 22 23 25 29 28 27 26 27 25 31 38 35 38 39 35 33 42
12 12 12 13 17 19 21 21 30 25 26 27 26 25 26 33 34 37 39 38 34 35
13 14 14 17 17 20 23 26 26 31 28 28 28 24 23 26 33 34 37 38 38 37
15 16 17 18 18 19 22 24 28 32 34 30 26 24 23 19 26 34 35 36 36 38
25 23 23 21 20 21 22 25 25 27 29 27 24 22 22 21 19 27 35 36 37 38
35 33 31 30 26 25 25 25 26 25 26 29 28 26 22 22 21 20 25 33 37 36
44 43 39 39 37 34 30 28 27 26 28 31 31 31 29 22 21 21 20 23 30 33
41 44 48 47 43 40 36 35 34 28 29 30 33 35 36 34 24 20 20 20 22 27
38 39 42 45 47 44 41 38 35 34 32 31 33 35 38 39 37 34 27 23 20 22
39 38 40 40 43 47 46 41 41 37 36 35 34 35 37 40 42 40 37 33 27 22
36 38 38 38 37 42 49 48 45 42 40 38 37 41 42 45 48 46 42 41 36 33
34 34 35 38 38 37 44 49 48 41 38 42 43 46 48 52 56 52 49 49 45 42
35 35 33 38 42 40 43 46 45 46 48 45 44 46 49 53 56 51 54 53 50 52

GFSNIL_prec_cthk_033.txt.gz
RH
21 21 22 21 20 23 25 24 25 27 29 25 29 27 29 33 35 34 33 36 39 45
18 18 17 16 18 20 21 23 24 28 28 28 28 28 24 30 33 35 34 32 34 38
13 13 14 15 15 16 17 22 23 23 25 26 27 26 25 24 30 35 34 33 34 35
12 11 14 16 17 19 21 22 24 24 27 27 29 30 28 22 25 31 34 35 36 37
13 14 16 18 18 19 18 21 24 25 30 31 30 29 27 22 18 25 31 34 36 36
17 19 18 19 19 19 19 18 20 25 25 24 26 26 25 23 19 18 20 28 33 35
20 21 22 22 24 23 21 21 22 22 26 28 28 27 27 24 22 20 18 20 23 29
29 28 27 27 27 26 26 23 23 22 22 26 28 30 31 31 26 23 21 21 19 20
36 39 40 39 35 32 30 28 27 23 22 25 28 31 34 36 36 35 31 26 23 22
40 41 39 40 42 41 38 36 34 32 27 27 29 32 36 38 40 41 40 39 37 33
41 41 39 40 41 43 45 45 41 38 34 31 30 33 38 42 43 43 43 44 44 43
37 39 38 38 38 41 42 44 48 44 41 38 36 37 42 48 49 49 49 53 53 52
37 41 39 37 37 38 41 43 42 48 48 43 38 41 46 52 54 52 56 58 56 54
36 37 38 39 38 39 40 43 45 43 45 47 47 48 51 54 54 55 58 55 53 53

GFSNIL_prec_cthk_036.txt.gz
RH
20 20 21 23 24 26 27 26 27 29 29 28 30 30 33 38 39 37 36 40 44 45
20 20 19 18 19 22 23 24 27 29 30 29 27 28 29 33 37 39 37 36 40 43
22 19 17 17 17 16 16 18 22 26 29 31 30 29 27 29 33 39 38 36 35 36
21 19 17 15 14 14 15 17 19 24 26 28 29 30 31 28 28 32 35 37 36 33
18 18 17 15 16 18 18 19 22 24 25 25 29 31 32 31 28 24 30 32 35 34
17 17 17 16 17 19 20 20 23 25 25 26 29 30 29 27 26 23 19 23 30 32
17 19 19 20 20 20 19 19 19 21 23 24 24 27 27 27 27 26 24 21 21 23
18 19 21 23 25 24 23 22 20 21 23 24 25 28 30 31 29 28 31 30 27 23
22 24 25 25 26 28 27 24 23 20 19 20 22 29 33 35 36 36 36 34 34 33
33 34 37 36 35 32 31 29 27 24 20 21 24 27 31 34 37 40 41 42 43 42
41 44 42 41 40 41 42 42 38 35 31 26 27 30 33 37 39 40 42 45 46 46
43 45 44 41 41 42 43 43 45 45 43 40 36 36 39 41 43 44 44 46 48 50
44 45 40 36 37 39 39 39 42 42 43 45 47 47 45 45 47 47 49 50 52 53
42 41 40 40 39 37 38 39 40 42 44 45 46 48 49 46 47 48 51 50 50 52

GFSNIL_prec_cthk_042.txt.gz
RH
30 30 28 27 25 21 20 22 25 27 30 33 37 38 40 39 40 45 43 41 42 42
29 30 27 26 25 23 22 23 26 27 28 31 33 38 38 38 37 39 41 40 41 42
27 27 26 27 27 25 26 26 25 25 27 29 32 34 38 37 37 37 37 39 41 40
26 25 26 25 27 27 27 26 24 24 25 27 30 30 32 34 36 37 36 35 36 37
26 26 25 25 26 28 25 23 21 21 22 26 28 29 29 30 34 36 36 34 34 35
27 24 24 25 25 24 23 19 19 19 18 20 23 26 29 30 30 31 32 34 34 34
25 24 25 24 23 22 22 21 19 18 17 16 18 22 24 27 27 27 26 25 26 30
25 26 24 23 21 20 22 21 20 20 18 18 19 19 21 21 23 25 26 25 25 25
24 24 21 20 18 19 22 23 22 20 18 17 17 18 20 23 23 24 26 26 26 27
20 19 17 16 17 20 22 21 21 20 18 17 17 19 21 23 26 27 28 29 32 34
16 15 15 17 20 23 23 22 23 23 21 20 20 20 22 25 28 29 31 33 36 38
21 20 22 22 24 26 28 28 28 28 26 25 23 24 26 29 31 31 33 34 36 38
33 34 33 36 40 42 42 41 42 44 43 45 44 42 40 40 40 39 38 40 41 43
45 44 44 48 50 51 52 51 50 52 54 55 54 55 55 54 51 50 50 49 47 46

GFSNIL_prec_cthk_045.txt.gz
RH
34 34 31 29 28 28 27 25 26 25 29 33 36 36 36 40 44 44 43 41 40 40
32 32 28 27 27 28 26 25 23 23 26 29 32 35 35 35 39 41 42 41 40 41
32 29 27 27 25 26 26 26 23 23 25 27 29 32 34 35 36 38 39 40 39 38
30 28 28 27 25 24 26 26 25 23 23 25 25 27 30 32 34 36 37 37 37 37
29 28 27 26 26 26 25 27 26 25 21 23 23 24 25 29 32 35 35 34 34 35
29 27 26 25 25 26 27 27 25 23 20 20 22 24 25 25 27 31 33 32 32 33
27 26 26 25 24 25 26 26 22 19 19 19 19 20 22 25 25 24 25 27 29 30
27 27 28 26 23 25 25 23 21 20 18 18 17 16 17 19 20 21 21 21 21 22
31 27 25 25 25 25 23 20 22 22 22 20 16 14 14 16 18 19 20 21 21 23
27 25 24 24 23 21 20 20 21 23 23 20 18 16 17 18 21 21 22 23 23 24
22 23 23 21 20 18 18 19 22 23 21 20 18 18 18 20 23 23 24 25 27 29
23 20 19 19 17 15 17 21 22 22 22 20 19 19 18 19 22 24 26 28 30 31
18 18 15 15 15 16 20 22 24 24 25 25 23 21 20 21 23 26 29 32 33 34
24 19 19 18 20 23 25 28 30 32 33 34 37 40 42 44 44 43 45 48 48 48

GFSNIL_prec_cthk_048.txt.gz
RH
28 34 37 36 37 36 37 33 34 31 31 32 36 37 40 47 50 47 40 39 39 43
28 33 38 36 32 32 33 31 28 28 29 29 31 33 37 41 44 45 43 43 41 39
27 29 33 35 31 30 30 26 27 25 24 27 28 29 32 39 40 41 45 43 41 39
27 28 30 32 28 27 27 25 22 22 21 24 28 28 28 32 39 38 40 41 39 40
24 27 32 29 28 27 25 24 22 23 21 21 24 27 28 29 33 35 36 37 37 37
29 29 28 26 27 27 25 24 23 24 24 20 21 24 24 25 28 33 35 35 33 34
27 28 26 25 26 26 25 25 23 24 25 21 18 22 25 26 23 27 30 32 32 32
22 23 25 26 25 24 24 23 22 24 24 21 21 21 22 24 23 24 23 26 27 27
24 24 24 24 23 24 23 23 23 22 20 20 21 19 17 17 20 22 23 23 21 19
29 26 23 23 24 24 23 22 23 21 19 18 19 17 15 14 16 19 19 20 22 22
30 30 30 28 25 24 23 23 22 19 18 19 19 18 16 16 16 18 20 24 25 23
27 31 29 29 26 24 23 22 19 17 17 20 18 16 15 17 20 21 21 21 23 25
24 24 22 25 26 23 21 19 17 16 18 19 19 18 16 18 20 24 25 23 23 24
28 27 25 22 19 20 20 19 15 19 20 21 20 19 18 18 20 22 26 28 29 31

GFSNIL_prec_cthk_051.txt.gz
RH
26 30 30 36 46 45 46 45 43 35 36 41 43 40 48 48 47 42 39 40 38 44
21 24 32 33 35 47 43 45 39 33 30 34 38 40 40 44 45 52 41 43 37 35
21 22 26 30 36 37 41 35 42 34 31 27 32 36 35 38 41 43 44 42 44 39
25 28 25 29 30 32 31 34 30 31 26 25 26 28 33 31 42 40 41 42 43 41
27 28 28 25 28 28 27 28 30 28 27 24 24 28 28 28 33 38 40 42 38 39
30 27 26 23 24 26 24 22 26 27 26 24 23 24 28 26 27 33 36 37 36 34
28 25 23 23 21 23 21 20 20 22 24 25 26 23 23 28 25 25 29 34 35 32
23 24 23 23 23 22 22 20 19 20 20 22 26 23 22 23 25 24 25 29 29 28
26 24 24 23 23 22 23 21 20 20 19 21 23 23 22 21 22 23 22 23 23 23
33 30 23 21 22 21 22 23 21 20 20 19 19 19 21 20 20 20 19 20 21 21
37 31 28 25 21 21 21 22 21 20 19 19 16 14 18 19 19 18 16 16 17 17
41 37 32 29 25 21 21 21 21 20 19 19 15 14 17 19 19 17 15 16 16 18
46 41 33 27 29 28 26 23 21 19 19 18 15 16 18 19 19 20 21 21 21 21
51 45 35 29 32 32 30 32 26 27 24 20 16 16 17 18 17 19 24 24 24 26

GFSNIL_prec_cthk_054.txt.gz
RH
26 28 32 38 39 45 42 42 40 40 36 36 39 44 46 45 39 33 32 33 34 36
24 24 29 30 35 38 37 42 39 38 34 31 34 38 38 42 45 48 38 31 29 34
20 21 24 26 26 35 36 40 46 37 32 26 25 32 36 34 42 42 42 35 35 33
18 18 19 23 23 25 34 36 38 40 31 27 24 27 29 30 39 39 37 37 39 38
25 20 18 19 22 24 26 30 28 30 29 25 22 23 23 24 31 39 37 36 37 40
28 26 22 20 20 23 22 23 24 24 22 22 20 20 21 23 23 29 33 35 32 31
28 26 25 25 22 22 21 20 21 21 20 20 19 19 20 22 23 23 26 29 30 29
27 26 27 27 25 21 20 19 19 19 20 19 19 20 21 20 22 22 22 23 26 28
30 28 28 27 27 24 20 19 19 19 18 19 18 19 22 20 20 22 23 22 21 24
33 31 26 26 27 27 24 21 18 18 18 18 18 19 21 21 22 22 20 22 21 21
35 34 34 28 25 25 26 23 19 17 18 18 18 18 21 21 22 23 21 19 19 19
33 35 35 31 27 24 24 22 20 18 18 18 18 18 20 21 21 23 20 17 16 17
48 43 40 37 33 29 26 20 19 19 18 18 18 18 20 19 20 22 21 17 14 14
55 51 48 49 43 36 34 32 27 23 22 21 19 18 18 18 19 22 21 19 18 18

GFSNIL_prec_cthk_060.txt.gz
RH
37 44 44 43 39 39 47 43 45 39 39 42 41 44 37 30 32 36 40 42 43 40
28 33 38 38 38 39 41 37 40 43 41 38 40 38 40 36 32 30 31 33 39 39
27 27 32 33 36 37 41 42 34 37 39 40 36 36 35 36 37 30 28 28 29 29
23 26 27 30 33 35 37 40 34 34 34 34 33 32 28 30 33 33 33 29 28 25
23 22 25 25 29 33 34 37 36 34 33 32 30 28 24 22 28 31 33 33 30 27
32 23 21 25 25 30 32 33 35 35 33 30 28 25 21 20 21 23 29 33 33 31
35 33 25 19 23 25 29 30 29 30 33 31 28 25 23 19 17 19 22 28 35 34
37 35 35 30 23 20 23 26 28 26 27 30 30 26 22 20 17 17 19 21 23 27
41 36 33 34 30 28 20 21 23 23 21 24 25 25 23 21 18 18 18 18 20 21
51 46 33 32 33 31 28 23 22 22 20 18 20 21 21 22 21 20 19 18 18 17
64 54 48 34 30 30 31 28 25 23 21 20 18 18 17 18 20 20 20 19 19 18
67 66 62 42 29 28 29 28 27 25 25 22 20 19 19 18 19 19 18 20 20 20
66 68 64 51 39 31 31 28 28 28 25 23 24 24 20 19 19 18 17 18 19 21
68 65 65 55 53 44 40 38 30 27 26 24 23 25 23 20 20 19 17 18 19 18

GFSNIL_prec_cthk_063.txt.gz
RH
37 42 45 48 50 53 51 51 53 49 49 51 46 45 35 38 41 41 44 44 42 42
36 39 43 44 47 47 48 50 50 49 44 48 46 45 44 38 34 37 40 43 41 42
31 33 36 43 42 41 41 45 45 47 51 45 49 47 41 43 38 32 33 37 41 41
29 27 28 33 36 39 40 43 43 42 44 47 45 45 45 40 39 37 31 30 31 32
30 26 23 27 30 36 38 41 47 43 39 41 41 41 39 38 36 36 36 34 30 31
33 29 25 21 25 31 35 37 40 38 37 36 37 38 36 35 31 32 34 36 36 34
38 33 29 25 20 24 28 32 35 39 37 36 37 36 33 31 30 26 27 29 33 35
43 42 37 33 29 21 22 26 30 33 37 36 34 34 34 30 28 28 25 25 26 30
44 46 44 38 35 33 27 21 24 27 29 30 33 30 28 29 27 25 23 24 24 24
52 45 45 44 42 38 34 32 27 21 23 25 26 27 25 26 27 25 23 21 22 24
63 55 46 45 43 41 39 36 34 31 26 22 20 21 22 21 24 26 23 23 23 22
67 66 59 51 41 39 39 40 36 33 33 30 25 20 19 19 19 20 19 18 22 23
69 69 65 61 57 44 38 40 40 35 31 31 29 26 23 22 20 20 19 17 17 20
66 70 71 69 68 61 48 42 40 41 36 30 27 27 26 26 26 22 20 18 16 14

GFSNIL_prec_cthk_069.txt.gz
RH
42 42 45 50 56 58 57 48 49 53 57 45 46 50 50 41 40 41 42 42 41 40
42 42 42 43 44 50 53 51 49 54 55 48 44 43 44 42 39 39 40 41 39 39
47 43 41 41 42 45 50 52 52 53 54 50 48 43 43 42 42 40 39 38 38 38
49 46 44 39 40 42 46 49 49 51 51 49 47 45 44 40 37 37 36 36 36 37
51 51 46 42 37 39 42 43 41 42 45 46 48 47 45 49 41 38 34 33 32 32
52 50 49 45 41 37 38 40 38 37 39 40 45 48 44 45 47 40 37 34 32 30
54 50 49 48 46 42 35 36 35 35 34 36 37 39 40 39 38 37 36 33 32 31
44 48 52 50 47 46 41 35 31 33 35 35 35 34 33 33 34 34 33 32 30 27
49 46 46 47 48 47 44 40 37 31 29 33 34 30 30 29 30 30 29 30 30 29
52 49 48 46 46 45 43 42 39 36 33 27 27 31 31 30 28 27 25 24 25 27
65 56 51 51 45 42 43 41 38 37 35 33 28 23 24 28 31 30 26 23 21 19
79 71 65 57 51 46 46 44 41 40 38 35 33 32 29 24 23 24 24 22 20 18
79 77 74 70 65 54 50 48 48 46 42 40 36 36 35 36 35 29 22 19 17 16
79 81 79 78 74 71 66 57 51 50 46 43 39 37 35 36 36 33 30 29 24 17

GFSNIL_prec_cthk_075.txt.gz
RH
47 51 58 62 66 72 77 81 51 49 60 49 52 49 44 42 37 42 39 32 42 45
52 50 55 62 61 69 68 79 56 52 59 53 50 50 54 45 39 54 38 38 35 42
52 52 49 50 54 62 66 57 74 50 57 57 52 51 47 46 46 38 42 43 41 35
53 53 52 49 50 49 49 52 52 54 63 65 54 53 50 46 49 42 38 42 48 39
54 55 55 50 49 50 46 46 49 52 59 63 59 56 49 46 49 42 40 40 39 37
55 56 58 54 50 49 48 44 45 51 57 59 59 55 52 49 46 49 44 40 38 37
53 56 59 60 57 52 48 44 43 44 48 54 56 54 52 55 53 49 49 44 41 38
58 52 58 57 59 54 52 47 44 42 42 44 49 53 51 49 52 51 48 48 42 38
56 55 54 62 60 60 55 51 48 45 43 42 39 44 47 47 47 43 41 41 38 36
59 58 61 59 56 53 56 54 52 48 47 43 37 34 33 36 36 40 42 39 34 35
70 64 60 62 60 55 53 51 52 48 47 42 41 36 33 32 30 31 31 34 37 34
85 76 66 61 59 61 59 57 53 49 49 44 41 38 36 35 34 32 28 26 26 29
77 86 84 76 72 69 68 63 60 54 54 54 48 40 37 36 37 36 30 30 25 24
63 71 80 85 84 71 70 74 66 57 52 53 54 50 43 39 38 35 34 32 30 26

GFSNIL_prec_cthk_078.txt.gz
RH
40 54 57 69 71 71 82 72 68 59 49 47 45 43 36 38 28 30 28 29 37 45
45 40 45 59 65 63 80 78 73 59 51 48 49 43 46 39 34 37 40 29 36 52
43 39 40 48 51 60 68 85 79 66 55 51 50 51 49 42 50 39 43 33 29 37
46 41 41 40 40 48 53 49 69 64 51 69 53 44 44 49 54 45 35 35 36 34
47 45 44 42 41 44 46 44 49 47 55 66 58 53 50 45 46 48 37 32 40 42
52 48 44 43 44 43 47 41 38 41 43 49 58 58 61 51 40 46 44 35 35 33
49 48 45 48 48 49 46 48 42 39 40 45 52 51 53 55 51 42 47 45 37 36
83 74 57 47 55 55 52 47 45 43 43 42 45 50 45 44 47 52 51 50 49 39
84 97 65 55 51 53 56 55 54 45 43 43 41 39 42 41 43 44 40 44 45 41
84 65 64 70 59 51 57 58 57 54 45 44 43 41 37 39 38 37 39 42 44 41
82 85 82 68 58 56 56 53 56 53 53 46 44 41 40 38 36 33 31 32 37 37
72 81 82 82 72 63 58 55 56 58 55 49 49 45 45 42 40 35 31 29 27 27
60 64 76 78 78 75 65 60 61 61 57 57 54 51 51 52 47 42 35 32 28 27
47 56 56 64 73 80 77 66 66 62 63 67 61 58 53 52 53 48 43 40 35 31

GFSNIL_prec_cthk_084.txt.gz
RH
53 54 71 72 74 74 74 64 50 52 52 53 54 47 38 34 34 39 38 38 46 53
51 57 60 69 71 70 81 76 59 60 56 50 44 44 40 30 26 29 35 36 42 48
45 50 51 57 60 72 70 80 71 67 60 55 49 44 46 38 33 24 28 30 32 38
46 48 49 54 56 57 60 65 75 83 63 57 48 43 45 45 41 30 28 29 25 31
56 63 57 51 48 54 61 64 71 69 72 66 58 49 45 48 47 40 36 32 28 28
60 66 69 60 53 53 54 51 59 61 60 62 73 68 54 52 45 46 44 39 34 29
72 69 71 71 64 60 57 51 49 52 46 48 55 61 64 59 54 48 45 46 38 31
86 83 79 76 70 66 60 58 52 51 49 45 45 49 60 59 60 56 51 47 44 41
88 82 87 87 83 79 78 74 67 64 55 50 48 47 49 55 53 53 53 53 50 51
91 92 90 91 84 85 85 81 76 70 71 61 54 52 50 50 48 48 50 52 55 52
74 74 87 91 89 83 84 78 76 73 66 68 67 58 57 52 53 49 47 46 45 45
64 69 66 81 87 88 84 83 80 78 74 68 64 66 71 64 60 53 50 45 46 45
61 63 61 64 79 81 83 85 83 80 79 70 63 61 67 71 68 66 62 56 50 47
44 51 55 56 61 73 74 76 76 80 78 74 69 68 68 72 71 66 63 70 65 59

GFSNIL_prec_cthk_087.txt.gz
RH
44 48 62 69 81 79 69 61 44 48 49 50 49 42 42 38 40 44 42 47 50 58
40 48 59 71 72 76 75 75 59 53 58 56 51 46 44 35 34 37 40 40 47 53
38 48 57 61 70 74 74 88 72 65 62 63 56 49 45 41 31 30 34 36 38 47
38 47 57 55 61 68 78 76 83 78 76 66 58 48 47 45 41 32 26 29 34 37
40 46 50 56 58 60 60 62 72 81 79 68 61 48 48 49 47 47 34 30 29 28
45 46 53 54 55 53 56 60 65 74 74 74 66 63 55 52 51 49 44 43 38 35
61 57 64 68 63 56 52 59 60 63 68 67 67 70 71 62 62 55 51 48 46 43
83 69 68 73 77 71 59 57 55 53 59 58 55 58 61 62 61 61 57 55 50 44
84 80 85 81 81 82 77 70 62 58 54 57 57 55 55 57 57 65 61 52 53 52
84 87 91 91 90 88 85 81 76 71 66 62 61 59 59 55 56 54 55 55 55 53
68 78 73 71 85 86 89 86 82 84 81 77 76 73 65 64 60 56 51 52 52 54
68 68 70 66 71 77 87 88 86 86 80 78 80 79 79 74 69 66 57 55 52 49
68 69 69 64 55 66 77 82 88 86 85 83 82 83 78 78 73 70 66 65 62 57
50 56 60 61 57 50 55 69 75 79 84 86 83 81 76 72 72 71 72 70 69 64

GFSNIL_prec_cthk_093.txt.gz
RH
39 47 71 75 72 73 83 69 54 47 45 40 42 41 37 39 47 46 44 42 39 47
48 42 49 58 71 74 84 72 58 51 52 48 50 49 41 40 41 43 39 40 41 42
58 50 44 52 63 69 78 74 71 55 54 60 54 48 43 39 39 40 38 35 37 39
63 52 49 49 59 73 76 78 78 77 64 59 65 60 55 50 41 36 33 33 32 34
73 54 53 47 52 61 71 75 78 80 84 71 73 70 58 53 46 44 41 34 27 26
92 70 50 43 47 56 60 67 76 77 81 82 78 70 63 57 49 52 54 49 42 30
93 90 72 40 40 52 56 57 60 63 70 78 82 81 75 69 60 53 60 56 54 45
94 92 90 52 45 43 54 58 60 61 59 65 70 76 77 73 70 66 61 63 62 57
83 91 97 89 60 47 50 59 63 62 59 59 65 68 70 70 65 67 67 60 59 60
71 70 88 93 88 71 59 61 67 72 65 65 61 60 63 63 62 61 66 63 60 62
71 61 62 70 69 80 82 78 72 74 78 77 70 68 64 61 62 61 61 59 60 62
68 67 67 62 60 69 76 82 80 79 78 79 82 77 72 67 66 64 64 63 66 65
76 72 70 66 61 58 63 61 61 59 72 82 85 86 86 81 75 73 73 74 69 70
66 68 65 66 65 61 59 59 57 53 54 66 79 86 87 88 86 81 78 78 77 77

GFSNIL_prec_cthk_096.txt.gz
RH
41 58 70 83 83 76 77 73 61 50 49 44 39 36 32 36 50 50 46 40 40 45
46 46 57 78 78 80 87 83 70 52 50 47 43 44 38 40 39 48 48 45 38 38
64 57 49 53 64 74 76 77 79 63 56 54 53 55 49 45 38 39 43 42 39 36
73 67 56 53 55 61 68 71 81 78 72 65 65 64 58 54 47 39 39 38 36 34
83 77 64 56 53 60 72 79 79 77 82 77 74 70 70 63 59 55 42 41 41 33
91 93 85 65 54 51 59 75 80 77 81 86 83 78 81 69 61 54 50 52 49 41
93 94 89 85 61 48 49 60 68 70 74 79 83 81 78 72 67 63 54 54 58 57
88 88 90 88 84 56 44 53 65 60 62 63 64 73 77 77 78 74 68 62 61 64
88 81 87 91 89 76 46 43 54 63 63 62 63 58 63 68 72 76 66 69 65 60
84 80 72 81 93 88 71 57 55 56 62 60 58 56 56 59 64 70 68 71 72 72
77 76 74 71 78 87 80 76 74 71 65 64 66 68 64 64 62 65 66 65 64 67
78 70 67 70 72 66 66 72 79 79 72 69 69 72 77 78 74 71 70 62 62 63
81 77 72 69 68 66 63 65 76 80 76 68 66 72 77 83 85 81 80 74 69 68
80 77 74 73 71 68 65 59 62 63 63 61 58 62 72 80 88 88 90 88 82 78

GFSNIL_prec_cthk_102.txt.gz
RH
41 61 71 81 84 75 78 80 68 71 49 43 38 39 39 40 39 43 36 38 48 53
33 38 58 69 70 78 75 68 81 71 56 46 47 39 40 32 39 42 52 41 39 35
32 38 40 46 62 77 81 80 74 72 62 49 45 51 44 40 41 40 45 44 50 44
54 52 46 43 42 51 61 71 80 78 79 59 53 45 50 49 53 62 50 39 43 44
75 76 66 62 67 54 53 54 57 67 72 78 71 69 61 57 54 58 55 46 36 35
89 84 85 76 74 84 68 56 52 64 77 84 81 80 74 74 71 67 64 55 54 48
83 82 79 84 82 90 86 77 66 59 79 90 81 82 84 83 76 76 70 65 58 54
78 77 83 83 85 92 90 87 73 77 70 80 78 74 77 80 88 87 78 77 82 74
81 79 78 80 82 86 90 89 86 79 75 73 68 77 74 71 72 83 85 76 71 74
82 76 75 79 80 75 79 90 88 84 81 71 68 70 72 70 70 66 61 62 67 72
76 74 72 70 75 71 69 87 93 87 79 78 66 65 64 67 66 66 63 60 59 58
76 72 71 74 71 70 72 84 88 82 75 73 71 63 59 57 59 65 68 71 72 70
75 76 75 76 73 71 70 68 73 79 72 63 65 72 72 66 62 63 61 56 60 66
77 78 79 79 75 74 76 73 70 71 68 62 62 72 74 74 70 72 67 65 67 70

GFSNIL_prec_cthk_105.txt.gz
RH
55 67 71 78 84 83 68 74 71 65 56 50 41 44 49 50 42 36 34 41 44 55
33 42 60 69 74 85 80 73 74 84 60 51 50 45 35 41 41 41 41 38 37 46
33 37 42 48 59 68 71 79 77 78 68 52 49 44 43 41 37 37 37 53 43 37
64 39 43 45 43 42 62 75 72 77 86 72 56 49 51 50 49 46 46 41 36 41
82 78 68 57 52 53 46 45 52 71 73 79 79 68 61 57 57 55 59 57 52 40
90 88 83 78 69 66 60 58 51 46 54 67 85 80 77 68 73 73 71 68 61 57
84 84 84 86 83 80 73 78 71 60 54 62 77 82 85 85 87 84 82 78 73 66
83 81 85 87 84 76 77 82 86 84 74 73 67 89 87 83 84 94 89 82 85 86
79 77 78 81 80 78 78 83 87 84 83 79 77 79 88 83 81 78 85 90 91 84
75 78 84 82 81 77 72 70 81 91 91 89 82 79 78 78 77 76 73 69 66 66
75 75 72 73 73 74 71 64 79 91 90 89 83 79 79 75 71 71 70 69 67 68
79 75 71 70 69 69 69 71 73 78 80 76 75 74 75 70 67 67 66 68 69 74
76 75 76 73 69 71 70 70 70 69 73 78 73 64 61 63 70 65 59 60 62 65
72 73 75 74 74 75 75 71 72 73 69 66 64 62 64 62 69 71 74 68 71 71

GFSNIL_prec_cthk_108.txt.gz
RH
77 71 75 75 74 75 68 68 60 53 48 39 40 48 50 48 41 34 37 45 49 53
40 50 58 65 75 81 77 73 71 66 67 50 47 42 39 45 47 43 40 38 34 48
29 35 39 47 60 70 76 75 76 77 73 56 45 45 43 37 36 39 42 42 46 42
48 47 37 41 44 50 61 70 78 74 74 68 55 48 45 45 44 39 38 37 45 50
86 76 58 41 42 43 41 45 55 63 76 77 78 69 57 49 51 53 53 53 51 42
93 88 84 78 66 63 59 58 54 47 52 60 66 78 79 71 73 68 63 65 69 61
93 93 89 87 88 87 84 79 73 73 56 52 57 72 80 82 83 84 84 83 76 72
84 84 87 90 90 93 91 87 83 85 82 72 66 68 79 82 86 86 87 87 88 86
80 79 81 85 91 93 90 87 84 87 86 87 84 78 76 74 85 86 86 86 91 90
77 81 82 83 85 85 83 81 76 79 87 89 87 81 77 77 81 85 86 83 76 75
78 81 78 76 75 77 77 76 70 78 88 93 91 86 84 81 81 80 83 79 75 73
80 81 79 75 71 70 72 75 74 74 80 84 82 80 77 71 80 81 79 71 72 74
82 81 82 79 77 72 70 70 73 74 75 70 70 74 65 61 59 61 67 75 74 70
78 79 78 77 78 78 75 76 76 75 73 74 68 67 64 64 64 61 60 67 69 70

GFSNIL_prec_cthk_111.txt.gz
RH
68 71 74 80 74 74 71 63 58 51 47 44 46 46 48 51 44 34 36 46 46 49
67 75 73 77 78 79 83 77 72 68 63 57 51 43 46 49 45 40 36 33 39 44
35 43 52 62 69 79 80 82 79 76 73 75 61 52 48 42 39 41 41 40 39 42
35 34 35 40 50 62 69 73 75 79 82 77 67 55 52 48 45 41 38 38 36 41
45 50 54 43 42 45 49 55 64 75 77 77 77 71 64 55 47 47 46 46 45 41
71 79 89 69 48 44 46 45 44 46 54 66 79 76 80 79 68 59 60 59 57 57
85 88 95 94 83 77 75 68 63 58 59 53 52 58 64 80 81 79 77 77 76 74
92 93 94 92 95 94 92 88 89 83 80 81 74 59 66 72 76 83 85 86 86 85
92 94 91 93 92 93 96 96 94 88 84 85 89 86 76 73 76 83 84 85 86 88
96 92 87 87 88 91 94 93 89 85 82 81 90 89 88 85 84 82 87 84 86 84
90 92 91 88 85 85 88 85 83 80 75 81 84 93 92 88 87 86 88 88 85 85
88 86 86 89 85 77 80 79 79 81 78 75 84 89 90 91 87 86 80 80 87 86
89 87 87 84 83 82 81 74 78 76 75 75 72 70 75 78 77 71 68 82 82 79
91 92 88 86 86 89 88 84 82 80 80 79 77 75 68 65 66 67 67 67 63 62

GFSNIL_prec_cthk_114.txt.gz
RH
72 74 76 77 76 73 68 64 52 45 44 43 46 49 48 43 42 35 35 41 47 45
72 74 74 76 80 77 74 71 64 63 55 50 45 44 45 50 49 47 44 38 33 32
58 72 77 74 79 80 85 89 80 75 73 67 64 55 49 47 44 44 45 43 43 40
42 45 57 63 65 70 80 84 84 81 77 75 81 71 59 52 50 46 45 43 40 40
36 36 35 34 42 58 66 66 73 76 77 83 83 79 68 58 58 54 48 48 47 46
42 39 39 41 40 40 53 51 47 55 63 72 75 80 79 80 82 75 63 58 59 61
69 59 63 67 76 61 50 56 56 50 47 47 50 54 62 68 75 84 83 76 76 74
92 85 73 78 86 88 70 77 85 82 76 71 72 72 61 58 61 74 77 78 85 88
93 90 82 87 88 96 94 96 95 93 93 91 88 86 86 82 76 73 78 84 87 89
94 91 90 91 94 95 95 97 96 96 95 88 87 87 85 89 87 78 76 81 89 91
96 96 92 94 90 92 93 95 92 88 85 85 81 84 83 90 89 87 85 87 90 91
90 87 90 91 94 93 88 89 90 86 85 86 81 78 84 90 89 94 92 90 88 84
88 87 91 96 98 97 89 84 83 81 80 79 78 75 70 70 71 74 76 77 72 76
88 90 97 98 97 97 93 89 87 85 81 79 79 76 73 71 69 68 65 62 64 66

GFSNIL_prec_cthk_117.txt.gz
RH
67 69 69 73 70 73 61 55 48 46 48 53 55 53 46 42 35 33 33 40 45 48
70 73 74 76 75 74 71 69 63 53 46 46 45 44 48 47 47 47 46 43 36 35
71 72 74 76 76 77 75 72 69 65 67 60 56 49 45 46 43 45 44 43 42 42
60 62 70 77 75 77 77 81 85 81 78 76 69 66 68 60 53 48 44 41 40 40
42 44 48 54 68 67 66 73 79 80 79 77 75 80 78 69 59 56 57 54 49 45
45 39 39 38 36 34 40 52 65 62 67 72 75 80 78 77 70 72 74 70 60 56
59 53 45 45 42 43 41 40 44 48 45 50 56 58 71 74 76 76 77 79 83 72
65 67 64 64 59 59 68 68 57 50 51 50 52 52 59 57 52 53 57 67 79 81
77 87 89 89 92 83 76 77 83 72 68 78 84 80 82 83 86 80 74 69 74 80
94 94 94 93 92 90 86 86 89 79 88 92 92 93 90 86 84 84 82 82 80 79
95 97 98 96 94 91 92 93 93 94 94 94 96 91 88 89 85 83 87 89 88 86
99 98 99 98 99 91 90 91 94 91 91 90 88 87 86 85 88 93 88 91 90 88
99 99 97 93 92 92 94 94 96 97 92 92 91 86 85 82 77 76 78 80 81 79
97 97 96 94 94 97 98 99 95 95 92 92 91 88 83 80 78 73 74 71 67 68

GFSNIL_prec_cthk_123.txt.gz
RH
59 55 53 57 53 55 58 55 62 55 49 47 47 48 49 42 40 41 43 44 46 47
58 55 55 63 57 61 62 59 55 57 59 57 56 56 56 51 50 44 45 41 37 36
54 57 65 70 70 70 72 74 68 66 58 55 54 51 50 51 52 47 49 48 50 50
59 63 64 70 68 74 75 70 70 71 70 65 59 59 64 66 61 55 53 52 50 50
61 65 69 71 71 75 77 78 80 75 74 74 76 79 75 76 70 74 72 63 61 56
62 61 62 66 68 69 74 73 79 78 82 83 84 82 78 77 75 75 81 83 74 67
45 55 59 55 52 50 52 56 62 62 62 60 64 67 69 78 77 73 79 85 82 82
44 46 48 48 48 47 49 45 41 40 40 43 49 56 54 55 60 67 68 76 80 79
54 52 57 62 65 65 65 63 61 53 53 60 65 60 60 56 53 55 51 53 55 63
68 60 57 63 66 72 75 81 86 81 87 91 92 91 85 68 66 67 62 70 69 77
79 79 79 76 80 81 83 85 93 93 93 94 96 96 93 89 82 82 68 81 85 84
87 81 81 84 90 88 95 92 90 94 94 98 98 96 96 95 96 93 80 87 91 91
88 87 86 89 93 93 92 94 95 98 99 97 97 97 95 96 98 96 88 90 90 90
90 92 88 91 98 98 99 98 96 99 99 99 97 96 94 92 94 97 98 95 90 86

GFSNIL_prec_cthk_129.txt.gz
RH
49 49 51 60 57 55 50 47 46 45 46 44 41 40 40 39 37 39 41 42 39 35
49 49 52 58 56 51 50 49 54 49 47 49 44 42 43 44 45 46 45 46 45 40
45 48 54 51 51 51 48 49 51 53 49 50 52 51 50 48 48 50 50 50 50 47
45 48 52 50 50 52 51 52 59 64 66 65 61 58 60 58 53 50 59 69 73 58
36 41 46 49 47 52 58 65 64 68 72 68 69 70 69 64 66 77 77 80 72 75
38 40 41 43 45 49 59 64 67 70 74 73 76 81 80 81 85 86 86 83 80 80
41 46 48 46 48 55 58 61 65 70 75 75 77 79 83 84 80 75 72 70 70 77
41 45 50 54 54 60 64 65 63 60 59 62 63 63 61 52 43 45 49 53 58 57
47 44 45 53 59 57 59 55 50 48 46 46 47 48 49 48 49 52 54 56 67 73
54 50 47 45 48 49 48 50 53 57 59 61 64 71 76 71 67 68 72 80 87 89
62 64 61 55 52 56 59 64 68 70 71 72 75 78 79 82 88 86 87 90 89 90
88 82 76 81 77 71 72 73 73 73 73 75 71 79 83 87 89 90 92 93 94 94
92 84 90 95 98 92 93 86 83 84 85 84 81 83 90 91 94 98 97 99 97 97
94 91 94 92 99 96 93 91 88 87 88 85 86 89 94 94 95 98 98 97 95 92

GFSNIL_prec_cthk_135.txt.gz
RH
49 54 56 60 54 52 52 50 53 53 48 51 48 42 40 38 35 35 35 36 37 36
52 51 55 61 61 61 60 56 52 50 49 52 49 44 38 36 37 39 38 36 37 41
50 52 52 52 54 59 59 56 53 51 52 49 50 47 45 40 36 39 41 45 46 47
44 48 55 55 53 59 57 52 50 53 52 50 55 51 49 48 47 47 47 47 47 49
56 44 48 54 54 55 53 53 49 50 52 51 56 61 59 58 55 57 62 56 59 70
63 53 47 46 53 56 54 54 52 50 53 63 68 74 71 69 69 72 71 68 76 78
72 66 54 51 47 52 57 57 56 57 59 64 69 73 76 76 79 79 81 83 86 83
95 74 64 52 46 44 51 58 57 54 59 73 73 75 78 78 80 84 86 84 77 69
93 86 75 64 50 43 44 50 54 57 56 65 70 75 74 74 79 81 76 62 57 52
83 95 85 76 63 47 47 49 52 56 62 72 73 69 69 62 56 52 53 58 67 72
86 94 88 88 73 57 59 60 60 66 74 81 70 65 59 61 65 72 78 81 81 82
91 86 85 88 80 65 61 66 71 73 77 73 70 71 68 72 80 85 87 81 78 84
86 90 86 85 82 76 69 67 68 72 70 69 72 73 75 81 81 91 93 92 89 90
84 91 91 89 88 86 81 74 74 67 68 67 76 81 86 91 91 91 93 93 94 95

GFSNIL_prec_cthk_138.txt.gz
RH
56 61 65 62 58 52 49 49 48 47 55 62 65 58 59 59 49 46 42 42 38 35
49 53 55 58 57 56 49 50 49 50 52 49 52 53 47 48 42 40 36 36 37 36
52 51 53 56 59 58 58 58 55 51 48 48 49 52 51 44 41 38 37 40 40 44
62 53 53 55 56 53 56 60 57 52 49 48 49 50 50 49 44 43 45 47 48 47
60 61 51 54 55 56 53 57 56 51 48 50 48 46 51 51 50 56 55 53 59 58
58 60 59 52 56 59 59 57 56 55 52 49 50 49 54 61 65 67 63 69 74 67
67 60 59 55 53 54 58 62 58 54 54 51 49 56 65 72 71 69 74 76 78 79
74 77 67 61 57 58 54 54 60 58 55 57 56 58 63 67 74 78 79 85 89 94
74 81 73 66 64 57 58 54 52 60 62 60 58 58 70 72 76 76 79 83 86 81
69 75 75 81 69 66 58 59 47 48 58 60 57 58 66 72 74 75 68 68 63 55
59 65 75 82 82 71 73 65 51 45 49 54 56 57 60 76 77 76 66 60 63 70
57 69 83 84 84 83 84 83 63 50 49 54 58 62 74 83 74 67 68 73 82 86
52 59 68 80 86 83 86 91 84 66 62 63 69 75 83 81 75 76 80 90 93 95
52 60 61 81 86 92 95 95 90 87 71 71 74 80 83 76 79 86 88 89 88 90

GFSNIL_prec_cthk_141.txt.gz
RH
59 63 64 66 66 62 59 52 50 45 43 54 61 58 62 59 61 53 52 50 45 42
58 58 61 65 66 62 59 53 51 47 46 47 57 60 62 56 60 52 45 42 37 36
61 58 56 58 58 62 61 57 54 51 50 50 52 48 48 51 45 43 38 38 37 38
63 62 61 56 57 58 62 63 62 60 56 53 48 48 46 47 45 43 40 41 42 44
53 64 62 59 53 57 55 57 59 61 59 53 50 49 51 49 46 45 43 46 51 51
50 52 56 59 55 51 52 51 54 56 57 54 53 54 55 48 50 52 55 61 62 65
70 72 63 59 57 52 49 50 51 53 52 52 55 55 53 49 53 62 69 69 72 76
79 79 80 71 54 55 53 46 50 52 54 54 52 55 54 55 59 70 71 72 78 83
77 73 74 74 69 61 58 54 47 47 51 55 55 54 58 59 61 67 67 76 79 82
57 68 74 73 73 75 65 62 54 54 49 47 54 58 63 66 63 69 73 78 77 76
50 51 51 56 65 76 74 74 69 62 54 50 47 54 63 62 66 68 70 76 78 74
46 45 43 45 49 59 68 72 80 72 72 63 46 43 53 61 62 67 70 78 82 76
46 46 43 46 43 54 67 74 84 81 77 75 62 47 46 52 59 69 77 82 86 83
49 46 45 48 48 54 70 82 88 85 87 89 79 62 53 54 64 77 85 87 91 90

GFSNIL_prec_cthk_144.txt.gz
RH
55 61 63 63 67 65 62 64 58 52 48 48 58 61 56 60 63 63 60 60 55 53
56 55 62 63 65 66 66 61 57 54 48 45 51 59 62 63 64 61 63 57 49 43
56 57 56 59 61 65 64 61 56 51 50 47 51 57 59 63 64 57 58 53 48 41
54 56 56 54 54 55 59 60 53 49 48 51 55 53 56 55 55 56 52 48 44 44
53 54 57 55 53 52 51 56 56 55 57 57 55 56 54 53 54 57 57 56 53 54
69 59 54 58 58 54 50 50 55 56 55 54 59 59 58 58 59 53 55 57 58 67
73 73 59 58 60 61 56 55 55 52 51 53 56 55 55 54 59 57 56 61 65 73
79 79 72 65 64 59 61 57 57 58 53 52 53 54 52 53 55 58 57 60 70 77
78 83 78 79 78 72 69 60 57 57 57 55 55 56 53 52 56 59 59 64 71 72
68 73 81 82 82 80 78 76 69 62 61 55 54 56 56 58 59 59 61 65 69 71
53 51 52 53 59 73 77 76 72 69 70 63 57 56 51 55 59 63 68 69 66 71
47 46 46 44 49 51 57 63 66 71 79 73 69 60 56 54 57 64 71 70 66 66
41 44 44 43 41 43 49 49 53 60 71 77 77 75 78 69 65 55 60 64 64 64
38 37 38 40 41 42 46 52 54 57 58 70 80 79 83 80 78 64 55 62 64 66

GFSNIL_prec_cthk_147.txt.gz
RH
54 55 57 61 68 67 71 66 63 71 51 48 50 47 54 57 56 52 55 55 60 59
51 52 56 62 62 65 74 65 60 68 55 51 51 49 57 62 60 62 65 67 56 52
55 54 54 59 60 63 66 68 66 61 54 53 49 48 51 58 63 58 59 60 62 53
53 56 58 56 58 56 58 62 61 59 57 54 53 49 51 57 61 62 69 54 51 51
57 56 57 58 60 59 58 55 55 57 56 57 53 55 56 55 62 59 55 54 56 55
77 76 76 61 57 61 64 65 59 55 54 57 59 60 59 55 55 56 55 56 58 56
82 82 82 74 69 57 59 64 67 58 56 56 57 60 59 59 59 60 58 59 53 57
79 80 76 75 78 73 60 62 64 66 64 58 56 55 54 56 58 61 55 57 60 58
65 70 69 71 81 78 75 64 63 61 65 57 58 57 54 56 59 55 56 54 59 66
63 64 66 77 88 89 78 71 73 70 69 65 57 55 58 56 57 58 60 58 59 62
54 56 58 60 70 80 78 81 78 80 77 70 66 64 61 56 54 56 60 67 61 65
47 50 53 54 52 51 54 56 62 68 82 82 77 72 66 66 63 57 53 57 62 67
36 37 40 41 43 43 45 46 49 50 56 61 67 70 72 79 84 71 66 59 60 63
40 38 36 35 36 36 38 40 43 47 51 52 55 62 66 71 89 87 82 81 79 73

GFSNIL_prec_cthk_150.txt.gz
RH
52 51 53 59 72 69 82 78 67 55 50 46 41 41 36 43 50 43 44 43 46 49
46 48 49 49 54 62 70 67 71 62 62 56 47 39 49 41 48 56 62 66 60 57
41 44 48 55 59 57 55 61 69 66 60 70 55 50 45 42 56 59 60 59 58 62
48 42 47 50 53 56 59 61 61 68 63 62 50 49 45 49 48 51 63 62 61 63
72 65 53 47 51 53 49 56 58 61 61 58 56 50 49 50 53 53 56 55 61 55
80 77 65 70 64 63 57 57 54 56 56 55 54 58 55 56 56 57 57 58 56 55
81 86 81 74 74 76 68 60 58 62 62 61 58 54 56 59 61 62 58 56 57 57
70 76 82 86 81 82 83 76 71 64 67 69 61 58 58 55 58 58 58 58 60 57
62 65 72 76 88 77 77 79 79 72 65 65 64 63 62 56 52 51 49 57 55 58
51 55 60 64 67 70 76 84 90 91 82 70 63 63 66 62 61 54 52 53 54 55
46 46 47 51 55 58 63 71 80 80 94 86 78 76 70 69 65 64 60 55 52 55
41 40 39 38 38 43 50 55 57 61 74 72 68 69 77 80 82 70 67 62 59 53
35 35 33 32 31 32 34 37 41 44 46 49 52 55 62 78 85 88 80 73 72 65
38 36 34 34 34 33 33 33 34 35 36 42 46 46 51 60 71 72 74 74 78 82